Morgantown, WV

1:11 AM EST on February 12, 2016 (GMT -0500)
Morgantown Municipal-Hart

Weather History for KMGW - December, 2001

Change the Weather History Date:

Saturday, December 1, 2001

  Actual Average Record
Temperature  
Mean Temperature 42 °F 39 °F  
Max Temperature 48 °F 47 °F 75 °F (2006)
Min Temperature 36 °F 31 °F 11 °F (1964)
Degree Days  
Heating Degree Days 23 26  
Month to date heating degree days 26  
Since 1 July heating degree days 1074  
Cooling Degree Days 0 0  
Month to date cooling degree days 0  
Year to date cooling degree days 814  
Moisture  
Dew Point 40 °F    
Average Humidity 81    
Maximum Humidity 100    
Minimum Humidity 68    
Precipitation  
Precipitation 0.00 in 0.10 in 1.08 in (1974)
Month to date precipitation 0.10  
Year to date precipitation 39.02  
Sea Level Pressure  
Sea Level Pressure 30.18 in    
Wind  
Wind Speed 7 mph (SW)    
Max Wind Speed 12 mph    
Max Gust Speed 17 mph    
Visibility 10 miles    
Events      
T = Trace of Precipitation, MM = Missing Value Source: NWS Daily Summary

Daily Weather History Graph

Daily Weather History Graph

Search for Another Location

Airport or City:

Trip Planner

Search our weather history database for the weather conditions in past years. The results will help you decide how hot, cold, wet, or windy it might be!

Date:

Astronomy

Dec. 01, 2001 Rise Set
Actual Time 7:21 AM EST 4:55 PM EST
Civil Twilight 6:51 AM EST 5:25 PM EST
Nautical Twilight 6:18 AM EST 5:59 PM EST
Astronomical Twilight 5:45 AM EST 6:31 PM EST
Moon 5:45 PM EST (12/1) 8:02 AM EST (12/1)
Length of Visible Light 10h 34m
Length of Day
9h 34m
Full, 99% of the Moon is Illuminated
Dec 1
Full
Dec 7
Last Quarter
Dec 14
New
Dec 22
First Quarter
Dec 30
Full

Hourly Weather History & Observations

Time (EST) Temp. Windchill Dew Point Humidity Pressure Visibility Wind Dir Wind Speed Gust Speed Precip Events Conditions
12:53 AM 48.9 °F - 46.0 °F 90% 30.04 in 10.0 mi SSW 8.1 mph - N/A   Mostly Cloudy
1:11 AM 48.2 °F - 46.4 °F 93% 30.03 in 10.0 mi SW 9.2 mph - N/A   Scattered Clouds
1:53 AM 48.9 °F - 45.0 °F 86% 30.04 in 10.0 mi SSW 6.9 mph - N/A   Partly Cloudy
2:53 AM 48.9 °F - 45.0 °F 86% 30.06 in 10.0 mi SSW 9.2 mph - N/A   Partly Cloudy
3:53 AM 48.0 °F - 45.0 °F 89% 30.06 in 10.0 mi SW 9.2 mph - N/A   Partly Cloudy
4:53 AM 48.0 °F - 44.1 °F 86% 30.07 in 10.0 mi SW 9.2 mph - N/A   Partly Cloudy
5:53 AM 48.0 °F - 45.0 °F 89% 30.09 in 10.0 mi SW 10.4 mph - N/A   Partly Cloudy
6:53 AM 48.0 °F - 44.1 °F 86% 30.11 in 10.0 mi WSW 6.9 mph - N/A   Scattered Clouds
7:07 AM 48.2 °F - 44.6 °F 87% 30.11 in 10.0 mi SW 9.2 mph - N/A   Mostly Cloudy
7:53 AM 46.9 °F - 42.1 °F 83% 30.14 in 10.0 mi WSW 9.2 mph - N/A   Mostly Cloudy
8:53 AM 46.9 °F - 39.9 °F 77% 30.18 in 10.0 mi Variable 6.9 mph - N/A   Overcast
9:53 AM 48.9 °F - 39.0 °F 69% 30.21 in 10.0 mi SW 11.5 mph - N/A   Mostly Cloudy
10:53 AM 46.9 °F - 39.0 °F 74% 30.22 in 10.0 mi WSW 9.2 mph 17.3 mph N/A   Overcast
11:53 AM 48.0 °F - 39.0 °F 71% 30.22 in 10.0 mi WSW 10.4 mph - N/A   Overcast
12:53 PM 46.9 °F - 37.9 °F 71% 30.22 in 10.0 mi WSW 8.1 mph - N/A   Overcast
1:53 PM 46.9 °F - 37.9 °F 71% 30.22 in 10.0 mi WSW 9.2 mph - N/A   Overcast
2:53 PM 46.9 °F - 37.9 °F 71% 30.21 in 10.0 mi West 5.8 mph - N/A   Overcast
3:53 PM 46.9 °F - 37.9 °F 71% 30.23 in 10.0 mi Variable 5.8 mph - N/A   Overcast
4:53 PM 46.9 °F - 37.0 °F 68% 30.24 in 10.0 mi WSW 6.9 mph - N/A   Mostly Cloudy
5:12 PM 46.4 °F 45.2 °F 37.4 °F 71% 30.23 in 10.0 mi WSW 3.5 mph - N/A   Scattered Clouds
5:53 PM 45.0 °F - 37.0 °F 74% 30.26 in 10.0 mi Calm Calm - N/A   Clear
6:53 PM 44.1 °F - 36.0 °F 73% 30.28 in 10.0 mi Calm Calm - N/A   Clear
7:53 PM 39.9 °F - 36.0 °F 86% 30.29 in 10.0 mi Calm Calm - N/A   Mostly Cloudy
8:53 PM 39.0 °F - 36.0 °F 89% 30.29 in 9.0 mi Calm Calm - N/A   Mostly Cloudy
9:53 PM 37.9 °F 34.4 °F 36.0 °F 93% 30.29 in 7.0 mi SSW 4.6 mph - N/A   Clear
10:53 PM 36.0 °F 32.1 °F 36.0 °F 100% 30.28 in 9.0 mi SSW 4.6 mph - N/A   Mostly Cloudy
11:53 PM 37.9 °F - 36.0 °F 93% 30.29 in 8.0 mi Calm Calm - N/A   Partly Cloudy